CLUSTER II-FM8 (TANGO)

Last updated on Wed Oct 29 2025 00:03:35 GMT+0000 (Coordinated Universal Time)

1 26464U 00045B 25303.75319551 .00001058 00000+0 00000+0 0 9992 2 26464 147.0866 21.4990 8680637 236.9332 0.8716 0.44426065 19280
UTC large
Height (km)
Speed (km/s)
/
Latitude / Longitude
Inclination (degrees)
Orbital Period (minutes)
Azimuth
Elevation
Range (km)
Doppler Factor

Next 0 passes for location: London (51.5072 / 0.1276)

Sorry there are no passes over London.